Location: *
(43.0409°N, 0.1694°E)
Time: 17:51:02
(UTC+00:00)

FENGYUN 1C DEB - Pass Details

Date: 25 June 2024
Orbit: 854 x 916 km, 98.8° (Epoch: 11 July)

Event Time Altitude Azimuth Distance (km) Brightness Sun altitude
Rises 20:51:16 0° 220° (SW) 3,512 ? -10.4°
Reaches altitude 10° 20:55:16 10° 247° (WSW) 2,590 ? -10.9°
Maximum altitude 20:57:43 13° 273° (W) 2,405 ? -11.2°
Drops below altitude 10° 21:00:11 10° 298° (WNW) 2,608 ? -11.5°
Sets 21:04:16 0° 326° (NW) 3,562 ? -12.0°
